Location: Ravensburg
(47.7866°N, 9.6124°E)
Time: 12:52:32
(UTC+01:00)

ZACube-1 - Visible Passes

Search period start: 15 March 2026 00:00
Search period end: 25 March 2026 00:00
Orbit: 536 x 596 km, 97.8° (Epoch: 14 March)

Date Brightness Start Highest point End Pass type
(mag) Time Alt. Az. Time Alt. Az. Time Alt. Az.
15 Mar ? 03:06:14 10° NNE 03:07:50 20° NE 03:07:50 20° NE visible
15 Mar ? 04:41:31 10° N 04:43:51 22° NW 04:43:51 22° NW visible
16 Mar ? 03:06:44 10° NNE 03:08:28 21° NE 03:08:28 21° NE visible
16 Mar ? 04:42:03 10° NNW 04:44:31 22° NW 04:44:31 22° NW visible
17 Mar ? 03:07:15 10° NNE 03:09:06 22° NE 03:09:06 22° NE visible
17 Mar ? 04:42:35 10° NNW 04:45:09 22° NW 04:45:09 22° NW visible
18 Mar ? 03:07:44 10° NNE 03:09:44 24° NE 03:09:44 24° NE visible
18 Mar ? 04:43:06 10° NNW 04:45:47 23° NW 04:45:47 23° NW visible
19 Mar ? 03:08:13 10° NNE 03:10:21 25° NE 03:10:21 25° NE visible
19 Mar ? 04:43:35 10° NNW 04:46:23 23° NW 04:46:23 23° NW visible
20 Mar ? 03:08:41 10° NNE 03:10:56 26° NE 03:10:56 26° NE visible
20 Mar ? 04:44:04 10° NNW 04:46:59 23° WNW 04:46:59 23° WNW visible
21 Mar ? 03:09:09 10° NNE 03:11:33 28° ENE 03:11:33 28° ENE visible
21 Mar ? 04:44:32 10° NNW 04:47:35 22° WNW 04:47:35 22° WNW visible
22 Mar ? 03:09:35 10° NNE 03:12:07 29° ENE 03:12:07 29° ENE visible
22 Mar ? 04:45:01 10° NNW 04:48:06 22° WNW 04:48:09 22° WNW visible
23 Mar ? 03:10:01 10° NNE 03:12:41 30° ENE 03:12:41 30° ENE visible
23 Mar ? 04:45:27 10° NNW 04:48:32 22° WNW 04:48:43 22° WNW visible
24 Mar ? 03:10:27 10° NNE 03:13:15 31° ENE 03:13:15 31° ENE visible
24 Mar ? 04:45:53 10° NNW 04:48:56 22° WNW 04:49:17 22° WNW visible
